Showing default

LILIUM-1, 58467

Orbit data source: Space-Track

LILIUM-1, 58467 is a Taiwanese payload satellite in SSO that was launched on Fri, 01 Dec 2023 UTC via an FALCON 9 launch vehicle from the Air Force Western Test Range (AFWTR). Payload-class satellites include a variety of spacecraft equipped with specific instruments for various scientific and technological missions. These include communications satellites like Starlink; space stations such as the ISS; scientific satellites like the Hubble; Earth observation satellites from companies like Planet Labs, Umbra, and HawkEye 360; GPS; miniature CubeSats for education and research; and military/defense satellites.

Loading next visibility...
Identifier
58467, 2023-185F
Orbit
SSO
Country
Flag of TWTW / TWN
Related business
Manufacturer
NCKU
Mission
Operational Amateur Technology
Bus & Motor
CUBESAT 3U, Unknown motor
Mass
4 kg wet, 4 kg dry
Launch date (UTC)
2023-12-01 (2 years ago)
Launch vehicle
FALCON 9
Launch site
Air Force Western Test Range (AFWTR)
Object type
Payload
Rocket body
Debris
Shape & HBR
Box, 0.1 m
Radar Cross Section
0.035 m², Medium (>0.1 m² and < 1m²)

Expand to show TLE details & history
Last TLE update: 15 hours ago

TLE from 15 hours ago
0 LILIUM-1
1 58467U 23185F   25306.54077822  .00047399  00000-0  96440-3 0  9998
2 58467  97.3602  16.8608 0006389 291.9516  68.1054 15.46118854107114
Epoch: 2025-11-02T12:58Z
TLE epoch observation values (Epoch: 2025-11-02T12:58:43.238Z)
Latitude
-0.00001°
Longitude
140.12561°
Altitude
429.6 km
Speed
7.655 km/s
True Right ascension
01h 07m 26s
True Declination
0° 00' 00"
Sunlit
Object was in full shadow at epoch
Visualization orbit readout
Latitude
Unknown
Longitude
Unknown
Altitude
Unknown
Speed
Unknown
Apparent Right ascension
Unknown
Apparent Declination
Unknown
Sunlit
N/A
Visualization observer readout
Local Sidereal Time
23:56:48
Azimuth
Unknown
Elevation
Unknown
Doppler factor
Unknown
Orbital elements
Apogee altitude
429.368 km
Perigee altitude
420.675 km
Semi-major axis
6,803.159 km
Eccentricity
0.00064
Inclination
97.3602°
RAAN
16.8608°
Arg. of periapsis
291.9516°
True anomaly
68.17335°
Mean anomaly
68.1054°
Eccentric anomaly
68.13937°
Mean motion
3.86792 °/min
Orbital period
93.07 mins
BSTAR
0.0009644
Loading maneuver chart data...
Computing Atmospheric mass density...
Loading historical data...
Loading historical data...
Loading historical data...
Loading historical data...
Loading historical data...
Loading historical data...
Loading historical data...

Documentation

Showing up to 5 results
|